Location: Newark
(47.3000°N, 8.0500°E)
Time: 22:53:54
(UTC+00:00)

OTV 5 (USA 277) - Pass Details

Date: 28 August 2019
Orbit: 310 x 324 km, 54.5° (Epoch: 17 October)

Event Time Altitude Azimuth Distance (km) Brightness Sun altitude
Rises 18:51:37 0° 240° (WSW) 2,037 ? -6.5°
Reaches altitude 10° 18:53:35 10° 243° (WSW) 1,209 ? -6.8°
Maximum altitude 18:56:15 75° 329° (NNW) 329 ? -7.2°
Drops below altitude 10° 18:58:56 10° 55° (NE) 1,210 ? -7.6°
Enters shadow 19:00:48 - 57° (ENE) 2,001 ? -7.9°
